Regional Weather Roundup
Issued by NWS Kansas City/Pleasant Hill, MO

Home | Current Version | Previous Version | Graphics & Text | Print | Product List | Glossary Off
Versions: 1 2 3 4 5 6 7 8 9 10 11 12 13 14 15 16 17 18 19 20 21 22 23 24 25 26 27 28 29 30 31 32 33 34 35 36 37 38 39 40 41 42 43 44 45 46 47 48 49 50

000
ASUS43 KEAX 252304
RWREAX

WEATHER ROUNDUP FOR EASTERN KANSAS AND NORTHWEST MISSOURI
NATIONAL WEATHER SERVICE KANSAS CITY/PLEASANT HILL MO
600 PM CDT SAT OCT 25 2014

KSZ040-057-103>105-MOZ028-029-037-043-260000-
...KANSAS CITY METROPOLITAN AREA...

CITY           SKY/WX    TMP DP  RH WIND       PRES   REMARKS
K.C. INTL      CLEAR     75  55  49 E5        30.02S
K.C. DOWNTOWN  CLEAR     77  54  44 E5        30.00S
LEES SUMMIT    CLEAR     77  58  51 NE3       30.02S
OLATHE - IXD   CLEAR     78  57  48 E3        30.02F
OLATHE - OJC   CLEAR     77  58  51 MISG      30.01F
LAWRENCE       CLEAR     78  58  49 E5        30.00F

$$

MOZ001>008-011>017-020>025-030>033-038>040-044>046-053-054-260000-
...NORTHERN AND CENTRAL MISSOURI...

CITY           SKY/WX    TMP DP  RH WIND       PRES   REMARKS
ST. JOSEPH     CLEAR     76  49  38 E5        30.02S
MOSBY          CLEAR     79  48  34 CALM      30.01S
WHITEMAN AFB   NOT AVBL
CLINTON        HAZE      79  63  57 CALM      30.02S VSB 1/4
SEDALIA        CLEAR     76  59  55 NE5       30.03S
WARSAW         NOT AVBL
MARSHALL       CLEAR     79  54  41 CALM      30.03S
CHILLICOTHE      N/A     75  50  41 CALM      30.04S
MOBERLY        CLEAR     75  50  41 NW3       30.03F
KIRKSVILLE     CLEAR     68  50  52 NE6       30.04F

$$

MOZ041-047>049-056>058-063>065-088>090-097-260000-
...EASTERN AND SOUTHERN MISSOURI...

CITY           SKY/WX    TMP DP  RH WIND       PRES   REMARKS
ST. LOUIS INTL CLEAR     76  55  48 N3        30.01S
SPIRIT OF STL  CLEAR     69  59  70 CALM      30.00S
COLUMBIA       CLEAR     76  54  46 N5        30.02S
JEFFERSON CITY CLEAR     80  55  42 CALM      30.01S
MEXICO         CLEAR     77  57  50 CALM      30.03S
ROLLA          CLEAR     76  58  53 CALM      30.02F
LEBANON        CLEAR     81  61  50 CALM      30.04F
OSAGE BEACH    CLEAR     79  61  53 CALM      30.02S
SPRINGFIELD    CLEAR     80  63  55 CALM      30.04S
BRANSON        CLEAR     82  63  51 CALM      30.05F
NEVADA         CLEAR     79  61  53 CALM      30.02F
JOPLIN         CLEAR     79  64  60 SW5       30.03S
WEST PLAINS    CLEAR     79  59  50 CALM      30.04S

$$

IAZ060-094-KSZ022-034>040-054-083-096-NEZ052-066-093-260000-
...KANSAS...SOUTHEAST NEBRASKA AND IOWA...

CITY           SKY/WX    TMP DP  RH WIND       PRES   REMARKS
TOPEKA         CLEAR     78  58  49 E7        30.00F
MANHATTAN      CLEAR     79  63  57 NE10      29.97F
EMPORIA        CLEAR     81  61  50 S7        29.99F
CHANUTE        CLEAR     79  65  62 S7        30.01S
WICHITA        CLEAR     85  58  39 S10       29.98F
OMAHA          CLEAR     70  42  36 NE6       30.04F
LINCOLN        CLEAR     68  47  46 NE8       30.04F
FALLS CITY     CLEAR     74  45  35 E6        30.01F
LAMONI         CLEAR     68  47  46 NE6       30.05S
DES MOINES     CLEAR     68  35  29 N6        30.06S

$$




USA.gov is the U.S. government's official web portal to all federal, state and local government web resources and services.